Location: Chircca
(13.7944°S, 72.0608°W)
Time: 06:23:19
(UTC+00:00)

Cosmos 1818 - Pass Details

Date: 14 July 2020
Orbit: 777 x 796 km, 65.0° (Epoch: 14 August)

Event Time Altitude Azimuth Distance (km) Brightness Sun altitude
Rises 09:59:26 0° 342° (NNW) 3,271 6.8 -17.5°
Reaches altitude 10° 10:01:50 10° 344° (NNW) 2,344 6.0 -17.0°
Maximum altitude 10:07:13 75° 68° (ENE) 818 3.8 -15.8°
Drops below altitude 10° 10:12:37 10° 153° (SSE) 2,351 6.1 -14.5°
Sets 10:15:02 0° 154° (SSE) 3,280 6.9 -14.0°
